DAL2762 KSLC-KSFO

Flight info

Callsign DAL2762
Flight time 1h 32m
Altitude 40000
Route DEZRT2 BAM LLC LEGGS BDEGA4
Aircraft A359/H-SDE2E3GHIJ3J4J5LM1ORWXY/LB1D1

Departure

Time 2026-05-08 03:05
Airport Salt Lake City International Airport (KSLC)

Arrival

Time 2026-05-08 04:38
Airport San Francisco International Airport (KSFO)
Time Latitude Longitude Altitude Speed Heading
2026-05-08 03:00 40.78300 -111.99423 4237 ft 6 kts 176°
2026-05-08 03:01 40.78267 -111.99419 4237 ft 4 kts 175°
2026-05-08 03:01 40.78228 -111.99415 4237 ft 7 kts 175°
2026-05-08 03:01 40.78176 -111.99409 4237 ft 9 kts 175°
2026-05-08 03:01 40.78110 -111.99408 4237 ft 10 kts 186°
2026-05-08 03:02 40.78038 -111.99428 4237 ft 11 kts 193°
2026-05-08 03:02 40.77961 -111.99438 4237 ft 10 kts 175°
2026-05-08 03:02 40.77885 -111.99430 4237 ft 12 kts 175°
2026-05-08 03:02 40.77806 -111.99420 4237 ft 11 kts 174°
2026-05-08 03:03 40.77735 -111.99412 4238 ft 11 kts 175°
2026-05-08 03:03 40.77655 -111.99402 4238 ft 12 kts 175°
2026-05-08 03:03 40.77566 -111.99394 4238 ft 12 kts 184°
2026-05-08 03:03 40.77522 -111.99467 4239 ft 11 kts 263°
2026-05-08 03:04 40.77528 -111.99533 4240 ft 4 kts 306°
2026-05-08 03:04 40.77549 -111.99546 4240 ft 4 kts 349°
2026-05-08 03:04 40.77582 -111.99554 4240 ft 7 kts 352°
2026-05-08 03:04 40.77777 -111.99579 4238 ft 60 kts 355°
2026-05-08 03:05 40.78416 -111.99655 4236 ft 122 kts 355°
2026-05-08 03:05 40.79447 -111.99775 4242 ft 173 kts 355°
2026-05-08 03:05 40.80644 -111.99934 4897 ft 170 kts 352°
2026-05-08 03:05 40.81661 -112.00641 5562 ft 169 kts 312°
2026-05-08 03:06 40.82286 -112.01948 6177 ft 169 kts 295°
2026-05-08 03:06 40.82742 -112.03376 6671 ft 166 kts 292°
2026-05-08 03:06 40.83117 -112.04786 7236 ft 160 kts 290°
2026-05-08 03:06 40.83495 -112.06208 7541 ft 171 kts 290°
2026-05-08 03:07 40.83793 -112.07802 7755 ft 186 kts 280°
2026-05-08 03:07 40.83994 -112.09545 7981 ft 202 kts 278°
2026-05-08 03:07 40.84190 -112.11473 8167 ft 222 kts 278°
2026-05-08 03:07 40.84393 -112.13578 8416 ft 240 kts 277°
2026-05-08 03:08 40.84607 -112.15837 8696 ft 256 kts 277°
2026-05-08 03:08 40.84835 -112.18251 9020 ft 270 kts 277°
2026-05-08 03:08 40.85068 -112.20743 9464 ft 277 kts 277°
2026-05-08 03:08 40.85224 -112.22423 9840 ft 279 kts 277°
2026-05-08 03:09 40.85541 -112.25824 10686 ft 279 kts 277°
2026-05-08 03:09 40.85781 -112.28387 11215 ft 285 kts 277°
2026-05-08 03:09 40.86029 -112.31053 11497 ft 298 kts 277°
2026-05-08 03:09 40.86288 -112.33834 11760 ft 312 kts 277°
2026-05-08 03:10 40.86555 -112.36736 12011 ft 324 kts 277°
2026-05-08 03:10 40.86826 -112.39711 12275 ft 335 kts 277°
2026-05-08 03:10 40.87084 -112.42798 12693 ft 340 kts 275°
2026-05-08 03:10 40.87053 -112.45941 13147 ft 344 kts 268°
2026-05-08 03:11 40.86850 -112.49111 13597 ft 348 kts 266°
2026-05-08 03:11 40.86626 -112.52298 14069 ft 349 kts 266°
2026-05-08 03:11 40.86406 -112.55509 14519 ft 352 kts 267°
2026-05-08 03:11 40.86259 -112.57655 14811 ft 354 kts 267°
2026-05-08 03:13 40.84856 -112.75002 17131 ft 366 kts 267°
2026-05-08 03:13 40.84579 -112.78363 17536 ft 368 kts 267°
2026-05-08 03:13 40.84305 -112.81728 17970 ft 369 kts 268°
2026-05-08 03:13 40.84177 -112.85129 18404 ft 370 kts 272°
2026-05-08 03:14 40.84176 -112.88541 18810 ft 372 kts 274°
2026-05-08 03:14 40.84193 -112.91975 19180 ft 375 kts 274°
2026-05-08 03:14 40.84210 -112.95433 19536 ft 378 kts 274°
2026-05-08 03:14 40.84223 -112.98915 19890 ft 381 kts 274°
2026-05-08 03:15 40.84235 -113.02385 20226 ft 383 kts 274°
2026-05-08 03:15 40.84245 -113.05912 20579 ft 386 kts 274°
2026-05-08 03:15 40.84253 -113.09484 20888 ft 389 kts 274°
2026-05-08 03:15 40.84261 -113.13090 20997 ft 398 kts 274°
2026-05-08 03:16 40.84267 -113.16780 21247 ft 402 kts 274°
2026-05-08 03:16 40.84273 -113.20466 21616 ft 402 kts 274°
2026-05-08 03:16 40.84277 -113.24137 21949 ft 404 kts 274°
2026-05-08 03:16 40.84278 -113.27904 22271 ft 406 kts 274°
2026-05-08 03:17 40.84279 -113.31598 22572 ft 408 kts 274°
2026-05-08 03:17 40.84279 -113.35353 22855 ft 411 kts 274°
2026-05-08 03:17 40.84276 -113.39140 23149 ft 413 kts 274°
2026-05-08 03:17 40.84273 -113.42946 23437 ft 415 kts 274°
2026-05-08 03:18 40.84270 -113.46757 23742 ft 416 kts 274°
2026-05-08 03:18 40.84265 -113.50588 24003 ft 419 kts 274°
2026-05-08 03:18 40.84260 -113.54454 24263 ft 421 kts 274°
2026-05-08 03:18 40.84255 -113.57021 24464 ft 422 kts 274°
2026-05-08 03:19 40.84242 -113.62220 24894 ft 423 kts 274°
2026-05-08 03:19 40.84231 -113.66114 25199 ft 425 kts 274°
2026-05-08 03:19 40.84219 -113.70026 25507 ft 426 kts 274°
2026-05-08 03:19 40.84212 -113.72626 25701 ft 427 kts 274°
2026-05-08 03:20 40.84198 -113.76557 25994 ft 429 kts 274°
2026-05-08 03:20 40.84176 -113.81783 26387 ft 431 kts 274°
2026-05-08 03:20 40.84165 -113.84461 26580 ft 432 kts 274°
2026-05-08 03:20 40.84148 -113.88390 26865 ft 434 kts 274°
2026-05-08 03:21 40.84123 -113.92432 27184 ft 436 kts 274°
2026-05-08 03:21 40.84098 -113.96396 27499 ft 438 kts 274°
2026-05-08 03:21 40.84072 -114.00433 27837 ft 439 kts 274°
2026-05-08 03:21 40.84044 -114.04481 28185 ft 441 kts 274°
2026-05-08 03:22 40.84016 -114.08550 28502 ft 443 kts 274°
2026-05-08 03:22 40.83985 -114.12630 28818 ft 445 kts 274°
2026-05-08 03:22 40.83952 -114.16690 29160 ft 447 kts 274°
2026-05-08 03:22 40.83919 -114.20804 29510 ft 449 kts 274°
2026-05-08 03:23 40.83881 -114.24935 29870 ft 451 kts 274°
2026-05-08 03:23 40.83845 -114.29086 30253 ft 452 kts 274°
2026-05-08 03:23 40.83807 -114.33243 30605 ft 454 kts 274°
2026-05-08 03:23 40.83767 -114.37425 30951 ft 456 kts 274°
2026-05-08 03:24 40.83725 -114.41626 31286 ft 458 kts 274°
2026-05-08 03:24 40.83681 -114.45845 31619 ft 460 kts 274°
2026-05-08 03:24 40.83636 -114.50085 31923 ft 462 kts 274°
2026-05-08 03:24 40.83589 -114.54344 32215 ft 465 kts 274°
2026-05-08 03:25 40.83541 -114.58634 32454 ft 468 kts 274°
2026-05-08 03:25 40.83490 -114.62940 32722 ft 470 kts 274°
2026-05-08 03:25 40.83437 -114.67200 33035 ft 471 kts 274°
2026-05-08 03:25 40.83382 -114.71524 33340 ft 471 kts 274°
2026-05-08 03:26 40.83203 -114.75866 33744 ft 473 kts 268°
2026-05-08 03:26 40.82774 -114.80170 34186 ft 472 kts 266°
2026-05-08 03:26 40.82289 -114.84457 34576 ft 472 kts 266°
2026-05-08 03:26 40.81798 -114.88741 34956 ft 471 kts 266°
2026-05-08 03:27 40.81309 -114.93010 35346 ft 469 kts 266°
2026-05-08 03:27 40.80823 -114.97272 35722 ft 469 kts 266°
2026-05-08 03:27 40.80343 -115.01477 36088 ft 468 kts 266°
2026-05-08 03:27 40.79856 -115.05732 36443 ft 467 kts 266°
2026-05-08 03:28 40.79369 -115.09964 36764 ft 467 kts 266°
2026-05-08 03:28 40.78881 -115.14200 37206 ft 464 kts 266°
2026-05-08 03:28 40.78396 -115.18387 37698 ft 459 kts 266°
2026-05-08 03:28 40.77915 -115.22540 38111 ft 456 kts 266°
2026-05-08 03:29 40.77434 -115.26675 38422 ft 456 kts 266°
2026-05-08 03:29 40.76950 -115.30816 38720 ft 455 kts 266°
2026-05-08 03:29 40.76468 -115.34948 39027 ft 455 kts 266°
2026-05-08 03:29 40.75993 -115.39019 39292 ft 455 kts 266°
2026-05-08 03:30 40.75024 -115.47274 39792 ft 456 kts 266°
2026-05-08 03:30 40.74041 -115.55562 40059 ft 461 kts 265°
2026-05-08 03:31 40.73034 -115.64012 40061 ft 469 kts 265°
2026-05-08 03:32 40.71494 -115.76767 40059 ft 472 kts 265°
2026-05-08 03:32 40.70453 -115.85324 40061 ft 472 kts 265°
2026-05-08 03:33 40.69407 -115.93870 40051 ft 472 kts 265°
2026-05-08 03:33 40.68357 -116.02414 40051 ft 473 kts 265°
2026-05-08 03:34 40.67299 -116.10977 40068 ft 474 kts 264°
2026-05-08 03:34 40.66230 -116.19553 40055 ft 474 kts 264°
2026-05-08 03:35 40.65154 -116.28131 40065 ft 474 kts 264°
2026-05-08 03:35 40.64082 -116.36638 40062 ft 474 kts 264°
2026-05-08 03:36 40.63039 -116.44858 40070 ft 474 kts 264°
2026-05-08 03:36 40.61947 -116.53417 40065 ft 474 kts 264°
2026-05-08 03:37 40.60847 -116.61986 40068 ft 474 kts 264°
2026-05-08 03:37 40.59741 -116.70547 40057 ft 474 kts 264°
2026-05-08 03:38 40.58637 -116.79047 40068 ft 474 kts 264°
2026-05-08 03:38 40.57520 -116.87593 40060 ft 474 kts 264°
2026-05-08 03:39 40.56022 -116.95536 40068 ft 478 kts 256°
2026-05-08 03:39 40.53941 -117.03788 40069 ft 479 kts 255°
2026-05-08 03:40 40.51766 -117.12065 40054 ft 479 kts 255°
2026-05-08 03:40 40.49579 -117.20353 40065 ft 479 kts 254°
2026-05-08 03:41 40.47397 -117.28635 40054 ft 479 kts 254°
2026-05-08 03:41 40.45216 -117.36913 40066 ft 479 kts 254°
2026-05-08 03:42 40.43043 -117.45130 40063 ft 480 kts 254°
2026-05-08 03:42 40.40846 -117.53416 40057 ft 480 kts 254°
2026-05-08 03:43 40.38643 -117.61690 40064 ft 480 kts 253°
2026-05-08 03:43 40.36434 -117.69959 40061 ft 480 kts 253°
2026-05-08 03:44 40.34218 -117.78226 40059 ft 481 kts 253°
2026-05-08 03:44 40.31993 -117.86502 40054 ft 481 kts 253°
2026-05-08 03:45 40.29773 -117.94733 40055 ft 482 kts 253°
2026-05-08 03:45 40.27532 -118.03012 40065 ft 482 kts 253°
2026-05-08 03:46 40.25284 -118.11286 40061 ft 482 kts 253°
2026-05-08 03:46 40.23029 -118.19562 40049 ft 482 kts 253°
2026-05-08 03:47 40.20792 -118.27747 40057 ft 482 kts 253°
2026-05-08 03:47 40.18525 -118.36013 40057 ft 481 kts 253°
2026-05-08 03:48 40.16260 -118.44245 40045 ft 481 kts 253°
2026-05-08 03:48 40.13988 -118.52479 40049 ft 481 kts 252°
2026-05-08 03:49 40.11696 -118.60704 40045 ft 481 kts 251°
2026-05-08 03:49 40.09233 -118.68845 40049 ft 481 kts 251°
2026-05-08 03:50 40.06785 -118.76923 40050 ft 481 kts 251°
2026-05-08 03:50 40.04328 -118.85052 40048 ft 481 kts 251°
2026-05-08 03:51 40.01869 -118.93175 40053 ft 481 kts 251°
2026-05-08 03:51 39.99409 -119.01285 40065 ft 480 kts 251°
2026-05-08 03:52 39.96944 -119.09386 40062 ft 481 kts 250°
2026-05-08 03:52 39.94470 -119.17495 40081 ft 482 kts 250°
2026-05-08 03:53 39.92000 -119.25564 40089 ft 482 kts 250°
2026-05-08 03:53 39.89513 -119.33665 40114 ft 481 kts 250°
2026-05-08 03:54 39.87019 -119.41763 40127 ft 481 kts 250°
2026-05-08 03:54 39.84627 -119.49510 40140 ft 481 kts 250°
2026-05-08 03:55 39.82123 -119.57596 40155 ft 481 kts 250°
2026-05-08 03:55 39.79619 -119.65657 40163 ft 481 kts 250°
2026-05-08 03:56 39.77124 -119.73666 40173 ft 481 kts 250°
2026-05-08 03:56 39.74608 -119.81716 40176 ft 481 kts 249°
2026-05-08 03:57 39.72088 -119.89760 40189 ft 481 kts 249°
2026-05-08 03:57 39.69562 -119.97796 40180 ft 481 kts 249°
2026-05-08 03:58 39.67027 -120.05837 40194 ft 480 kts 249°
2026-05-08 03:58 39.64507 -120.13808 40194 ft 480 kts 249°
2026-05-08 03:59 39.61963 -120.21833 40214 ft 480 kts 249°
2026-05-08 03:59 39.59416 -120.29845 40228 ft 481 kts 249°
2026-05-08 04:00 39.56873 -120.37820 40232 ft 481 kts 249°
2026-05-08 04:00 39.54309 -120.45834 40234 ft 481 kts 249°
2026-05-08 04:01 39.51739 -120.53849 40246 ft 481 kts 249°
2026-05-08 04:01 39.49165 -120.61850 40247 ft 481 kts 249°
2026-05-08 04:02 39.46589 -120.69837 40232 ft 481 kts 249°
2026-05-08 04:02 39.44020 -120.77778 40224 ft 481 kts 249°
2026-05-08 04:03 39.41428 -120.85768 40213 ft 481 kts 249°
2026-05-08 04:03 39.37532 -120.97734 40180 ft 481 kts 249°
2026-05-08 04:04 39.34926 -121.05707 40151 ft 481 kts 249°
2026-05-08 04:04 39.31586 -121.13211 40125 ft 483 kts 235°
2026-05-08 04:05 39.27575 -121.20109 40111 ft 484 kts 234°
2026-05-08 04:05 39.23526 -121.27052 40095 ft 484 kts 234°
2026-05-08 04:06 39.19494 -121.33968 40040 ft 477 kts 234°
2026-05-08 04:06 39.15532 -121.40754 40018 ft 470 kts 234°
2026-05-08 04:07 39.11628 -121.47430 40008 ft 469 kts 234°
2026-05-08 04:07 39.07699 -121.54137 40019 ft 470 kts 234°
2026-05-08 04:08 39.03751 -121.60860 40017 ft 470 kts 234°
2026-05-08 04:08 39.01780 -121.64212 39787 ft 469 kts 234°
2026-05-08 04:08 38.99809 -121.67557 39539 ft 469 kts 234°
2026-05-08 04:09 38.97833 -121.70909 39293 ft 469 kts 234°
2026-05-08 04:09 38.95862 -121.74251 39044 ft 469 kts 234°
2026-05-08 04:09 38.93888 -121.77592 38800 ft 468 kts 234°
2026-05-08 04:09 38.91942 -121.80885 38549 ft 468 kts 234°
2026-05-08 04:10 38.89945 -121.84259 38298 ft 468 kts 234°
2026-05-08 04:10 38.88003 -121.87538 38053 ft 469 kts 234°
2026-05-08 04:10 38.86029 -121.90867 37769 ft 468 kts 234°
2026-05-08 04:10 38.84063 -121.94179 37172 ft 466 kts 233°
2026-05-08 04:11 38.82088 -121.97501 36480 ft 467 kts 233°
2026-05-08 04:11 38.80118 -122.00814 35752 ft 468 kts 233°
2026-05-08 04:11 38.78139 -122.04138 34962 ft 470 kts 233°
2026-05-08 04:11 38.76146 -122.07482 34115 ft 474 kts 233°
2026-05-08 04:12 38.74134 -122.10852 33235 ft 477 kts 233°
2026-05-08 04:12 38.72111 -122.14237 32329 ft 480 kts 233°
2026-05-08 04:12 38.70072 -122.17649 31382 ft 483 kts 233°
2026-05-08 04:12 38.69861 -122.18001 31282 ft 483 kts 233°
2026-05-08 04:13 38.69036 -122.19380 30880 ft 484 kts 233°
2026-05-08 04:14 38.66984 -122.22807 29876 ft 487 kts 233°
2026-05-08 04:14 38.64914 -122.26259 29024 ft 488 kts 233°
2026-05-08 04:14 38.62881 -122.29647 28835 ft 473 kts 233°
2026-05-08 04:14 38.60907 -122.32932 28713 ft 458 kts 233°
2026-05-08 04:15 38.58993 -122.36115 28576 ft 444 kts 233°
2026-05-08 04:15 38.57162 -122.39156 28447 ft 430 kts 233°
2026-05-08 04:15 38.55349 -122.42158 28289 ft 424 kts 233°
2026-05-08 04:15 38.53346 -122.44931 27805 ft 424 kts 222°
2026-05-08 04:16 38.51087 -122.47354 27284 ft 422 kts 219°
2026-05-08 04:16 38.48804 -122.49692 26768 ft 419 kts 219°
2026-05-08 04:16 38.46543 -122.52008 26260 ft 416 kts 219°
2026-05-08 04:16 38.44291 -122.54320 25747 ft 413 kts 219°
2026-05-08 04:17 38.42060 -122.56615 25231 ft 410 kts 219°
2026-05-08 04:17 38.39847 -122.58892 24710 ft 407 kts 219°
2026-05-08 04:17 38.37677 -122.61124 24197 ft 404 kts 219°
2026-05-08 04:17 38.35496 -122.63366 23685 ft 401 kts 219°
2026-05-08 04:18 38.33329 -122.65594 23162 ft 397 kts 219°
2026-05-08 04:18 38.31185 -122.67797 22663 ft 394 kts 219°
2026-05-08 04:18 38.29057 -122.69981 22143 ft 391 kts 219°
2026-05-08 04:18 38.26947 -122.72146 21635 ft 388 kts 219°
2026-05-08 04:19 38.24813 -122.74213 21115 ft 385 kts 214°
2026-05-08 04:19 38.22386 -122.75607 20616 ft 383 kts 195°
2026-05-08 04:19 38.20643 -122.75926 20280 ft 382 kts 182°
2026-05-08 04:19 38.17168 -122.75314 19617 ft 380 kts 168°
2026-05-08 04:20 38.14594 -122.74537 19106 ft 378 kts 167°
2026-05-08 04:20 38.12867 -122.74013 18771 ft 377 kts 168°
2026-05-08 04:20 38.09498 -122.73006 18112 ft 374 kts 168°
2026-05-08 04:20 38.07824 -122.72513 17776 ft 372 kts 168°
2026-05-08 04:21 38.05310 -122.71778 17267 ft 369 kts 168°
2026-05-08 04:21 38.02811 -122.71050 16739 ft 367 kts 168°
2026-05-08 04:21 38.00325 -122.70326 16160 ft 366 kts 168°
2026-05-08 04:21 37.97850 -122.69609 15653 ft 363 kts 168°
2026-05-08 04:22 37.95382 -122.68895 15162 ft 360 kts 168°
2026-05-08 04:22 37.92957 -122.68194 14685 ft 356 kts 168°
2026-05-08 04:22 37.90581 -122.67379 14200 ft 353 kts 160°
2026-05-08 04:22 37.88456 -122.65817 13743 ft 353 kts 143°
2026-05-08 04:23 37.86590 -122.63871 13277 ft 351 kts 141°
2026-05-08 04:23 37.84733 -122.61863 12813 ft 349 kts 141°
2026-05-08 04:23 37.82889 -122.59881 12353 ft 347 kts 141°
2026-05-08 04:23 37.81048 -122.57920 12139 ft 346 kts 141°
2026-05-08 04:24 37.79204 -122.55960 12010 ft 345 kts 141°
2026-05-08 04:24 37.77370 -122.54012 11846 ft 345 kts 141°
2026-05-08 04:24 37.75563 -122.52097 11545 ft 327 kts 141°
2026-05-08 04:24 37.73882 -122.50316 11146 ft 312 kts 141°
2026-05-08 04:25 37.72245 -122.48590 10993 ft 304 kts 141°
2026-05-08 04:25 37.70611 -122.46856 10990 ft 307 kts 141°
2026-05-08 04:25 37.68980 -122.45113 10998 ft 305 kts 141°
2026-05-08 04:25 37.67355 -122.43380 11001 ft 305 kts 141°
2026-05-08 04:26 37.65734 -122.41655 11002 ft 305 kts 141°
2026-05-08 04:26 37.64115 -122.39932 11000 ft 305 kts 141°
2026-05-08 04:26 37.62486 -122.38210 10866 ft 306 kts 142°
2026-05-08 04:26 37.60744 -122.36749 10432 ft 304 kts 153°
2026-05-08 04:27 37.58883 -122.35521 10072 ft 300 kts 154°
2026-05-08 04:27 37.57023 -122.34324 9638 ft 298 kts 154°
2026-05-08 04:27 37.55185 -122.33137 9279 ft 296 kts 154°
2026-05-08 04:27 37.53355 -122.31930 8976 ft 296 kts 153°
2026-05-08 04:28 37.51544 -122.30706 8553 ft 295 kts 153°
2026-05-08 04:28 37.49744 -122.29488 8221 ft 293 kts 153°
2026-05-08 04:28 37.47948 -122.28275 7919 ft 292 kts 153°
2026-05-08 04:28 37.46205 -122.27096 7612 ft 281 kts 153°
2026-05-08 04:29 37.44526 -122.25914 7295 ft 266 kts 148°
2026-05-08 04:29 37.43286 -122.24308 6988 ft 259 kts 122°
2026-05-08 04:29 37.42479 -122.22290 6696 ft 258 kts 114°
2026-05-08 04:29 37.41777 -122.20216 6383 ft 257 kts 113°
2026-05-08 04:30 37.41086 -122.18133 5988 ft 259 kts 113°
2026-05-08 04:30 37.40602 -122.15976 5661 ft 256 kts 92°
2026-05-08 04:30 37.40909 -122.13818 5369 ft 250 kts 63°
2026-05-08 04:30 37.41953 -122.12136 5071 ft 239 kts 38°
2026-05-08 04:31 37.43241 -122.10888 4766 ft 228 kts 33°
2026-05-08 04:31 37.44582 -122.09944 4512 ft 217 kts 13°
2026-05-08 04:31 37.46016 -122.09895 4324 ft 205 kts 348°
2026-05-08 04:31 37.47351 -122.10407 4102 ft 197 kts 337°
2026-05-08 04:32 37.48580 -122.11108 3877 ft 191 kts 333°
2026-05-08 04:32 37.49756 -122.11830 3663 ft 185 kts 333°
2026-05-08 04:32 37.50910 -122.12547 3482 ft 184 kts 333°
2026-05-08 04:32 37.51911 -122.13530 3311 ft 185 kts 309°
2026-05-08 04:33 37.52585 -122.14893 3171 ft 183 kts 299°
2026-05-08 04:33 37.53187 -122.16301 3045 ft 182 kts 300°
2026-05-08 04:33 37.53786 -122.17710 2998 ft 182 kts 299°
2026-05-08 04:33 37.54380 -122.19123 2923 ft 182 kts 300°
2026-05-08 04:34 37.54978 -122.20518 2708 ft 181 kts 300°
2026-05-08 04:34 37.55569 -122.21911 2466 ft 180 kts 299°
2026-05-08 04:34 37.56148 -122.23302 2222 ft 179 kts 299°
2026-05-08 04:34 37.56719 -122.24658 1982 ft 175 kts 298°
2026-05-08 04:35 37.57277 -122.25993 1750 ft 168 kts 296°
2026-05-08 04:35 37.57803 -122.27246 1528 ft 155 kts 296°
2026-05-08 04:35 37.58296 -122.28419 1334 ft 147 kts 295°
2026-05-08 04:35 37.58772 -122.29557 1142 ft 146 kts 295°
2026-05-08 04:36 37.59240 -122.30675 943 ft 142 kts 295°
2026-05-08 04:36 37.59685 -122.31735 755 ft 131 kts 295°
2026-05-08 04:36 37.60091 -122.32708 598 ft 125 kts 294°
2026-05-08 04:36 37.60496 -122.33679 436 ft 125 kts 295°
2026-05-08 04:37 37.60906 -122.34654 230 ft 125 kts 296°
2026-05-08 04:37 37.61313 -122.35617 77 ft 125 kts 296°
2026-05-08 04:37 37.61712 -122.36569 26 ft 115 kts 297°
2026-05-08 04:37 37.62008 -122.37274 23 ft 65 kts 297°
2026-05-08 04:38 37.62174 -122.37674 26 ft 45 kts 295°
2026-05-08 04:38 37.62211 -122.37899 28 ft 18 kts 276°
2026-05-08 04:38 37.62225 -122.38055 31 ft 18 kts 275°
2026-05-08 04:38 37.62226 -122.38231 28 ft 22 kts 266°
2026-05-08 04:39 37.62219 -122.38418 27 ft 18 kts 267°
2026-05-08 04:39 37.62215 -122.38539 27 ft 7 kts 267°
2026-05-08 04:39 37.62213 -122.38579 26 ft 0 kts 266°
2026-05-08 04:39 37.62215 -122.38601 26 ft 6 kts 280°
2026-05-08 04:40 37.62244 -122.38688 23 ft 14 kts 297°
2026-05-08 04:40 37.62290 -122.38796 22 ft 11 kts 298°
2026-05-08 04:40 37.62330 -122.38892 23 ft 11 kts 297°
2026-05-08 04:40 37.62339 -122.38981 22 ft 12 kts 253°
2026-05-08 04:41 37.62315 -122.39070 21 ft 8 kts 242°
2026-05-08 04:41 37.62266 -122.39094 22 ft 9 kts 181°
2026-05-08 04:41 37.62201 -122.39123 22 ft 10 kts 207°
2026-05-08 04:41 37.62136 -122.39166 22 ft 11 kts 207°
2026-05-08 04:42 37.62076 -122.39206 22 ft 5 kts 208°
2026-05-08 04:42 37.62034 -122.39233 23 ft 8 kts 208°
2026-05-08 04:42 37.61988 -122.39272 25 ft 7 kts 219°
2026-05-08 04:42 37.61951 -122.39306 28 ft 6 kts 209°
2026-05-08 04:43 37.61931 -122.39319 24 ft 2 kts 207°
2026-05-08 04:43 37.61922 -122.39325 24 ft 1 kts 207°
2026-05-08 04:43 37.61917 -122.39328 24 ft 0 kts 207°